Location: Unspecified
(0.0000°N, 0.0000°E)
Time: 12:34:28
(UTC+02:00)

ARIANE 5 R/B - Visible Passes

Search period start: 25 June 2017 00:00
Search period end: 05 July 2017 00:00
Orbit: 556 x 35662 km, 7.3° (Epoch: 23 June)

Date Brightness Start Highest point End Pass type
(mag) Time Alt. Az. Time Alt. Az. Time Alt. Az.
25 Jun 7.1 03:24:06 40° ESE 03:24:06 40° ESE 13:00:44 10° E visible
26 Jun 4.3 21:01:41 10° W 21:19:50 84° N 21:22:22 29° E visible
28 Jun 6.6 05:33:41 49° WSW 05:42:43 77° S 15:27:47 10° E visible
29 Jun 7.6 02:45:00 27° ESE 02:45:00 27° ESE 12:14:00 10° E visible
30 Jun 5.0 10:59:05 10° W 20:38:04 81° N 20:42:50 10° E visible
02 Jul 6.6 04:54:37 67° SW 04:58:06 74° S 14:45:10 10° E visible
03 Jul 8.0 02:05:56 15° ESE 02:05:56 15° ESE 02:11:26 10° E visible
03 Jul 10.6 06:16:53 10° E 09:53:16 30° E 11:24:45 10° E visible
03 Jul 5.8 22:50:28 10° W 22:52:18 19° W 22:52:18 19° W visible
